Flag for Germany Weather past 2 weeks in Cloppenburg, Lower Saxony, Germany

Now
57 °F

Refreshingly cool.


Feels Like: 54 °F
Forecast: 42 / 62 °F
Wind: 15 mph from West

Location: Meppen-Mil

Current Time: May 30, 2015 at 5:01:15 PM

Latest Report: May 30, 2015 at 4:20 PM


Visibility: N/A

Pressure: 29.92 "Hg

Humidity: 55%

Dew point: 41 °F

Location of CloppenburgLocation

Historic Weather in Cloppenburg — Graph

°F

Cloppenburg temperature yesterday

Maximum temperature yesterday: 61 °F (at 1:20 PM)
Minimum temperature yesterday: 37 °F (at 4:20 AM)
Average temperature yesterday: 51 °F

Past Weeks' High & Low Weather Summary

 TemperatureHumidityPressure
High68 °F (May 22, 2:20 PM)100% (May 16, 5:20 AM)30.33 "Hg (May 16, 5:20 AM)
Low34 °F (May 16, 4:20 AM)24% (May 24, 6:20 PM)29.56 "Hg (May 19, 5:20 AM)
Average52 °F69%30.01 "Hg
* Reported May 15 3:20 PM — May 30 3:20 PM, Cloppenburg, Weather by CustomWeather, © 2015

Note: Actual official high and low records may vary slightly from our data, if they occured in-between our weather recording intervals... More about our weather records

Advertising

Cloppenburg weather history for previous 24 hours

 ConditionsComfort  
Time TempWeatherWind HumidityBarometerVisibility
3:20 PM
Sat, May 30
54 °FCool.12 mph54%29.92 "HgN/A
2:20 PM54 °FCool.13 mph63%29.89 "HgN/A
1:20 PM46 °FCool.9 mph82%29.89 "Hg5 mi
12:20 PM50 °FCool.10 mph71%29.86 "HgN/A
11:20 AM52 °FCool.6 mph77%29.83 "Hg6 mi
10:20 AM45 °FQuite cool.3 mph87%29.83 "HgN/A
9:20 AM50 °FCool.6 mph88%29.80 "Hg6 mi
8:20 AM45 °FQuite cool.9 mph87%29.80 "HgN/A
7:20 AM46 °FCool.7 mph87%29.77 "HgN/A
6:20 AM45 °FQuite cool.7 mph87%29.77 "HgN/A
5:20 AM46 °FCool.6 mph87%29.74 "HgN/A
4:20 AM48 °FCool.6 mph82%29.74 "HgN/A
3:20 AM48 °FCool.8 mph82%29.71 "HgN/A
2:20 AM48 °FCool.10 mph82%29.71 "HgN/A
1:20 AM48 °FCool.10 mph82%29.71 "HgN/A
12:20 AM50 °FCool.9 mph76%29.68 "HgN/A
11:20 PM
Fri, May 29
50 °FCool.12 mph76%29.68 "HgN/A
10:20 PM50 °FCool.12 mph76%29.68 "HgN/A
9:20 PM54 °FCool.13 mph72%29.65 "Hg5 mi
8:20 PM55 °FCool.13 mph63%29.65 "HgN/A
7:20 PM57 °FRefreshingly cool.14 mph51%29.65 "HgN/A
6:20 PM57 °FCool.3 mph63%29.68 "HgN/A
5:20 PM59 °FRefreshingly cool.9 mph51%29.68 "HgN/A
Weather by CustomWeather, © 2015

See weather overviewHow to use our weather pages